Location: Le Domaine
(47.0333°N, 76.5361°W)
Time: 23:39:31
(UTC-05:00)

Explorer 11/Cluster Stage 4 - Pass Details

Date: 18 November 2019
Orbit: 467 x 1259 km, 28.8° (Epoch: 15 December)

Event Time Altitude Azimuth Distance (km) Brightness Sun altitude
Rises 20:07:48 0° 211° (SSW) 3,322 10.0 -37.1°
Enters shadow 20:08:50 - 205° (SSW) 3,086 9.8 -37.3°
Reaches altitude 10° 20:12:08 10° 180° (S) 2,604 - -37.8°
Maximum altitude 20:14:11 12° 161° (SSE) 2,580 - -38.1°
Drops below altitude 10° 20:16:20 10° 142° (SE) 2,791 - -38.5°
Sets 20:21:31 0° 114° (ESE) 3,945 - -39.4°
